Location: Balmoral
(33.0667°S, 151.5833°E)
Time: 17:03:20
(UTC+00:00)

Meteor 1-25 Rocket - Pass Details

Date: 18 September 2020
Orbit: 835 x 893 km, 81.2° (Epoch: 24 October)

Event Time Altitude Azimuth Distance (km) Brightness Sun altitude
Exits shadow 18:18:47 17° 334° (NNW) 2,028 5.8 -19.3°
Maximum altitude 18:23:03 56° 260° (W) 1,007 4.2 -18.4°
Drops below altitude 10° 18:28:34 10° 182° (S) 2,480 6.7 -17.3°
Sets 18:31:03 0° 177° (S) 3,419 7.5 -16.8°
